Location: Deerlick Astronomy Village
(33.5614°N, 82.7631°W)
Time: 19:16:05
(UTC-05:00)

CAS-4A - Pass Details

Date: 30 October 2020
Orbit: 528 x 543 km, 43.0° (Epoch: 30 November)

Event Time Altitude Azimuth Distance (km) Brightness Sun altitude
Exits shadow 06:42:29 15° 322° (NW) 1,460 ? -14.3°
Maximum altitude 06:45:08 30° 16° (NNE) 964 ? -13.8°
Drops below altitude 10° 06:48:44 10° 79° (E) 1,767 ? -13.0°
Sets 06:51:09 0° 91° (E) 2,654 ? -12.5°
